sat.trackr.live / text

‹ back to catalog

IRIDIUM 133

NORAD 42955 · 2017-061A

PAYLOAD ACTIVE UNKNOWN

§ Identity

Operator
Country
US
Launch date
2017-10-09
Launch site
AFWTR
Launch vehicle
Mass (kg)
RCS (m²)

Purposes: comms

External: N2YO · Heavens-Above · Gunter

§ Orbital elements

Epoch: 2026-05-25T03:32:22.634016Z

Period
100.40 min
Inclination
86.3989°
Eccentricity
0.0002244
Mean motion
14.34218362 rev/d
Perigee alt
776.1 km
Apogee alt
779.3 km
Semi-major
7,155.8 km
B*
2.4367e-5
RAAN
34.8983°
Arg perigee
84.1511°
Mean anomaly
275.9941°
Rev number
45,147

§ Raw data

IRIDIUM 1331 42955U 17061A   26145.14748419  .00000088  00000+0  24367-4 0  99972 42955  86.3989  34.8983 0002244  84.1511 275.9941 14.34218362451479

JSON: /api/v1/satellites/42955 · /tle

For live sub-satellite position, see the globe view (requires WebGL).

§ Visibility from observer

Set your observer location to see the next 7 days of passes ≥ 10°. The values pass through the URL so the page stays shareable.

No JS? Fill the form by hand. The geolocation button needs JavaScript.